Location: Paddlesworth
(51.1000°N, 1.1333°E)
Time: 11:05:15
(UTC+00:00)

Okean 1 - Pass Details

Date: 29 September 2021
Orbit: 539 x 552 km, 82.5° (Epoch: 20 October)

Event Time Altitude Azimuth Distance (km) Brightness Sun altitude
Rises 04:32:07 0° 191° (S) 2,684 6.6 -13.4°
Reaches altitude 10° 04:34:16 10° 192° (SSW) 1,798 5.7 -13.1°
Maximum altitude 04:38:13 82° 280° (W) 554 3.2 -12.5°
Drops below altitude 10° 04:42:14 10° 9° (N) 1,819 6.2 -11.9°
Sets 04:44:24 0° 10° (N) 2,719 7.1 -11.5°
